Погода в Косуличах

Россия / Орловская область     52°50′55″N   35°02′57″E
темп.,
°C
ветер,
м/с
пор.,
м/с
влажн.,
%
обл.,
%
осадки,
мм/ч
давл.,
гПа
погр.,
м
19 апреля, пн
пн1900:00+4ссв3594100 0.0 1019118
03:00+3ссв369629 0.0 1018121
06:00+3ссв399722 0.0 1018204
09:00+6всв4688100 0.4 1018538
12:00+7всв3687100 0.5 1018512
15:00+9св577898 0.9 1017820
18:00+8св698498 0.6 1017745
21:00+5св61094100 0.8 1018490
20 апреля, вт
вт2000:00+5св5996100 0.0 1017416
03:00+5св5895100 0.1 1015359
06:00+5св4897100 0.1 1014351
09:00+7в5892100 0.6 1013619
12:00+8в5885100 0.3 1012825
15:00+10всв8974100 0.4 10101167
18:00+7св71189100 0.0 1008653
21:00+4ссв71295100 0.5 1006620
21 апреля, ср
ср2100:00+3с71297100 2.9 1002615
03:00+2сз71297100 4.3 1001463
06:00+2зсз71297100 0.8 1002587
09:00+3з71196100 0.8 1005856
12:00+7з71074100 0.1 10071268
15:00+8зюз8973100 0.4 10091225
18:00+7зюз5975100 0.3 1011855
21:00+5ююз3683100 0.3 101390
22 апреля, чт
чт2200:00+5ю388698 0.0 1014199
03:00+5ю4108899 0.8 1014353
06:00+4ююз489645 0.1 1015206
09:00+9ююз568235 0.1 1016508
12:00+13ююз6862100 0.8 10151387
15:00+14юз68545 2.3 10151669
18:00+13ююз486287 0.9 1016348
21:00+10ю4107717 1.0 1017214
23 апреля, пт
пт2300:00+8ююз4109192 0.5 1017220
03:00+7ю499388 0.8 1017166
06:00+6ю4119380 0.0 1016236
09:00+11ю7117520 0.0 1016540
12:00+15ю811595 0.1 10151572
15:00+16ююз8105054 0.9 10132399
18:00+13ююз61171100 1.9 1012846
21:00+8с1195100 4.7 101494